, LA

(GMT )
Venice

Weather History for K1B7 - September, 2013

Change the Weather History Date:

Thursday, September 12, 2013

  Actual Average Record
Temperature  
Mean Temperature 84 °F -  
Max Temperature 87 °F - - ()
Min Temperature 82 °F - - ()
Cooling Degree Days 20    
Growing Degree Days 34 (Base 50)    
Moisture  
Dew Point 76 °F    
Average Humidity 75    
Maximum Humidity 79    
Minimum Humidity 70    
Precipitation  
Precipitation 0.00 in - - ()
Sea Level Pressure  
Sea Level Pressure 29.99 in    
Wind  
Wind Speed 15 mph (ENE)    
Max Wind Speed 20 mph    
Max Gust Speed -    
Visibility 10 miles    
Events      
Averages and records for this station are not official NWS values.
T = Trace of Precipitation, MM = Missing Value Source: NWS Daily Summary

Daily Weather History Graph

Daily Weather History Graph

Search for Another Location

Airport or City:

Astronomy

Sep. 12, 2013 Rise Set
Actual Time 6:41 AM CDT 7:06 PM CDT
Civil Twilight 6:17 AM CDT 7:30 PM CDT
Nautical Twilight 5:49 AM CDT 7:57 PM CDT
Astronomical Twilight 5:20 AM CDT 8:26 PM CDT
Moon 1:39 PM CDT (9/12) No Moon Set
Length of Visible Light 13h 12m
Length of Day
12h 25m
Waxing Crescent, 50% of the Moon is Illuminated
Sep 12
Waxing Crescent
Sep 12
First Quarter
Sep 19
Full
Sep 26
Last Quarter
Oct 4
New

Hourly Weather History & Observations

Time (CDT) Temp. Heat Index Dew Point Humidity Pressure Visibility Wind Dir Wind Speed Gust Speed Precip Events Conditions
5:03 AM 82.4 °F 89.5 °F 75.2 °F 79% 30.00 in 10.0 mi East 12.7 mph - N/A   Clear
5:45 AM 82.4 °F 89.5 °F 75.2 °F 79% 29.99 in 10.0 mi East 11.5 mph - N/A   Scattered Clouds
6:23 AM 82.4 °F 88.2 °F 73.4 °F 74% 30.00 in 10.0 mi East 15.0 mph - N/A   Clear
6:46 AM 82.4 °F 88.2 °F 73.4 °F 74% 30.00 in 10.0 mi East 12.7 mph - N/A   Clear
7:15 AM 82.4 °F 89.5 °F 75.2 °F 79% 30.01 in 10.0 mi East 12.7 mph - N/A   Clear
7:57 AM 82.4 °F 88.2 °F 73.4 °F 74% 30.02 in 10.0 mi East 15.0 mph - N/A   Partly Cloudy
8:24 AM 84.2 °F 92.3 °F 75.2 °F 74% 30.02 in 10.0 mi East 13.8 mph - N/A   Scattered Clouds
8:52 AM 84.2 °F 92.3 °F 75.2 °F 74% 30.02 in 10.0 mi ENE 11.5 mph - N/A   Partly Cloudy
9:26 AM 86.0 °F 96.9 °F 77.0 °F 74% 30.02 in 10.0 mi NE 16.1 mph - N/A   Clear
9:50 AM 86.0 °F 96.9 °F 77.0 °F 74% 30.03 in 10.0 mi ENE 17.3 mph - N/A   Partly Cloudy
10:17 AM 86.0 °F 96.9 °F 77.0 °F 74% 30.03 in 10.0 mi ENE 19.6 mph - N/A   Partly Cloudy
10:48 AM 86.0 °F 96.9 °F 77.0 °F 74% 30.03 in 10.0 mi ENE 18.4 mph - N/A   Scattered Clouds
11:19 AM 86.0 °F 99.3 °F 78.8 °F 79% 30.03 in 10.0 mi NE 18.4 mph - N/A   Partly Cloudy
11:45 AM 86.0 °F 99.3 °F 78.8 °F 79% 30.03 in 10.0 mi NE 19.6 mph - N/A   Partly Cloudy
12:28 PM 86.0 °F 96.9 °F 77.0 °F 74% 30.01 in 10.0 mi NE 17.3 mph - N/A   Scattered Clouds
1:00 PM 86.0 °F 96.9 °F 77.0 °F 74% 30.01 in 10.0 mi NE 18.4 mph - N/A   Partly Cloudy
1:48 PM 87.8 °F 102.5 °F 78.8 °F 75% 29.99 in 10.0 mi East 15.0 mph - N/A   Scattered Clouds
2:21 PM 86.0 °F 96.9 °F 77.0 °F 74% 29.97 in 10.0 mi East 18.4 mph - N/A   Mostly Cloudy
2:53 PM 86.0 °F 96.9 °F 77.0 °F 74% 29.96 in 10.0 mi ENE 11.5 mph - N/A   Scattered Clouds
3:25 PM 86.0 °F 96.9 °F 77.0 °F 74% 29.94 in 10.0 mi East 17.3 mph - N/A   Partly Cloudy
3:46 PM 86.0 °F 95.1 °F 75.2 °F 70% 29.94 in 10.0 mi ENE 18.4 mph - N/A   Partly Cloudy
4:18 PM 86.0 °F 95.1 °F 75.2 °F 70% 29.94 in 10.0 mi East 13.8 mph - N/A   Partly Cloudy
4:45 PM 86.0 °F 96.9 °F 77.0 °F 74% 29.94 in 10.0 mi ENE 15.0 mph - N/A   Partly Cloudy
4:49 PM 86.0 °F 96.9 °F 77.0 °F 74% 29.94 in 10.0 mi ENE 15.0 mph - N/A   Partly Cloudy